EST,Max TemperatureF,Mean TemperatureF,Min TemperatureF,Max Dew PointF,MeanDew PointF,Min DewpointF,Max Humidity, Mean Humidity, Min Humidity, Max Sea Level PressureIn, Mean Sea Level PressureIn, Min Sea Level PressureIn, Max VisibilityMiles, Mean VisibilityMiles, Min VisibilityMiles, Max Wind SpeedMPH, Mean Wind SpeedMPH, Max Gust SpeedMPH,PrecipitationIn, CloudCover, Events, WindDirDegrees
2012-11-1,55,43,31,34,26,20,75,51,26,29.90,29.86,29.83,10,10,10,20,8,24,0.00,5,,266
2012-11-2,53,42,31,33,30,28,85,65,44,30.10,29.98,29.83,10,10,10,17,6,30,0.00,0,,351
2012-11-3,42,37,32,38,34,29,89,84,79,30.19,30.13,30.10,10,10,7,13,5,17,0.06,6,Rain-Thunderstorm,45
2012-11-4,47,38,28,33,30,27,100,77,53,30.19,30.17,30.14,10,10,6,16,6,18,0.00,2,,355
2012-11-5,47,36,24,31,27,22,92,71,49,30.19,30.14,30.09,10,8,2,8,3,76,0.00,0,,67
2012-11-6,51,38,25,37,30,24,92,67,42,30.09,29.99,29.91,10,9,5,10,4,13,T,3,,108
2012-11-7,53,43,33,40,36,29,92,70,48,30.13,29.97,29.88,10,6,2,12,5,15,T,5,Rain,21
2012-11-8,51,39,27,36,31,25,100,78,56,30.25,30.19,30.14,8,4,0,9,1,14,0.00,1,Fog,188
2012-11-9,61,45,29,41,35,28,92,70,47,30.22,30.14,30.06,10,6,2,21,11,24,0.00,0,,157
2012-11-10,71,61,50,48,43,39,63,52,41,30.14,30.10,30.04,10,10,10,22,14,28,0.00,1,,184
2012-11-11,68,60,52,50,43,40,66,56,45,30.16,30.07,29.96,10,10,10,31,18,41,T,1,Rain,176
2012-11-12,61,46,30,55,40,24,100,77,54,30.39,30.14,29.93,10,7,1,25,13,31,0.50,6,Rain-Snow,263
2012-11-13,42,35,27,26,23,21,85,64,43,30.52,30.47,30.39,10,10,10,9,5,13,0.00,0,,338
2012-11-14,43,34,25,28,25,21,88,71,53,30.53,30.47,30.37,10,10,8,13,5,15,0.00,0,,66
2012-11-15,47,36,25,32,28,22,92,73,53,30.40,30.36,30.32,10,7,3,7,3,8,0.00,0,,30
2012-11-16,52,39,25,34,29,22,92,70,48,30.48,30.44,30.37,10,6,2,8,3,13,0.00,0,,37
2012-11-17,57,43,28,35,30,25,92,66,40,30.56,30.49,30.45,10,8,2,10,6,13,0.00,0,,66
2012-11-18,61,46,31,33,29,26,78,54,29,30.44,30.40,30.35,10,10,10,9,5,15,0.00,0,,90
2012-11-19,60,47,33,38,33,27,82,59,36,30.35,30.27,30.16,10,10,9,7,3,15,0.00,1,,120
2012-11-20,59,51,43,44,40,36,83,65,47,30.16,30.11,30.05,10,10,8,7,3,8,T,8,Rain,54
2012-11-21,63,51,38,45,41,36,92,72,52,30.24,30.19,30.13,9,5,1,8,3,9,0.00,2,,14
2012-11-22,64,49,34,44,38,33,92,70,48,30.19,30.12,29.96,10,5,0,20,9,23,0.01,0,Fog-Rain,175
2012-11-23,54,42,30,53,31,18,100,78,55,30.21,30.05,29.92,10,9,6,31,17,39,0.05,6,Rain,281
2012-11-24,33,29,24,21,19,18,81,69,56,30.26,30.20,30.10,10,10,10,15,7,17,0.00,7,,270
2012-11-25,48,38,27,31,26,21,81,63,45,30.09,29.98,29.89,10,10,10,17,9,21,0.00,1,,224
2012-11-26,51,39,27,31,29,25,92,67,42,30.26,30.15,30.04,10,9,2,20,5,23,0.00,3,,6
2012-11-27,40,33,26,29,25,21,92,70,48,30.38,30.31,30.25,10,9,3,14,4,17,0.00,3,,11
2012-11-28,45,35,24,26,23,20,88,67,45,30.42,30.37,30.31,10,9,6,12,5,21,0.00,1,,226
2012-11-29,50,38,25,30,27,20,84,65,46,30.38,30.29,30.18,10,9,6,15,9,18,0.00,0,,171
2012-11-30,59,48,37,37,33,28,76,58,40,30.18,30.15,30.09,10,10,9,17,9,22,0.00,1,,183